Regional Weather Roundup
Issued by NWS

Home | Current Version | Previous Version | Graphics & Text | Print | Product List | Glossary On
Versions: 1 2 3 4 5 6 7 8 9 10 11 12 13 14 15 16 17 18 19 20 21 22 23 24 25 26 27
000
ASUS45 KCYS 091410
RWRWY

WYOMING REGIONAL WEATHER ROUNDUP
NATIONAL WEATHER SERVICE CHEYENNE WY
700 AM MST FRI DEC 09 2016

NOTE:  "FAIR" INDICATES FEW OR NO CLOUDS BELOW 12,000 FEET
WITH NO SIGNIFICANT WEATHER AND/OR OBSTRUCTIONS TO VISIBILITY.

WYZ001-091500-
YELLOWSTONE NATIONAL PARK

CITY           SKY/WX    TMP DP  RH WIND       PRES   REMARKS
LK YELLOWSTONE   N/A     17  15  92 VRB3      30.02R
W YELLOWSTONE  NOT AVBL

$$
WYZ002>013-054>058-071-098>099-091500-
NORTHERN WYOMING

CITY           SKY/WX    TMP DP  RH WIND       PRES   REMARKS
JACKSON        LGT SNOW  16  16 100 N3        30.07R
CODY           FLURRIES  -3  -6  87 NE3       30.14R
GREYBULL       MOCLDY     7  -2  66 NW6       30.22R WCI  -3
WORLAND        FAIR       1  -3  83 S8        30.19R WCI -13
SHERIDAN       MOCLDY     4  -2  76 CALM      30.23R
BUFFALO        CLOUDY     2  -4  76 NW9       30.13R WCI -13
GILLETTE       FAIR      -7 -10  87 NW5       30.18R WCI -18
HULETT         CLOUDY    -4  -8  84 NE3       30.19S
NEWCASTLE      FLURRIES   5   0  78 NW3       30.18R

$$
WYZ014>020-022>026-101>103-091500-
CENTRAL WYOMING

CITY           SKY/WX    TMP DP  RH WIND       PRES   REMARKS
BIG PINEY      CLOUDY     7   5  91 CALM      30.13R
PINEDALE       LGT SNOW  10   9  92 CALM      30.13R
DUBOIS         FAIR      25  18  74 NW16      29.96R WCI  12
LANDER         FAIR       0  -5  79 E6        30.07R WCI -12
RIVERTON       FAIR       1  -3  83 SW6       30.08R WCI -10
CASPER         FAIR      -8 -12  83 W5        30.12R WCI -19
DOUGLAS        FAIR      -1  -5  82 NW6       30.13R WCI -13

$$
WYZ021-027>030-104>119-091500-
SOUTHERN WYOMING

CITY           SKY/WX    TMP DP  RH WIND       PRES   REMARKS
EVANSTON       SNOW      31  28  89 SW15      30.14R VSB 1/4 WCI  20
KEMMERER       LGT SNOW  28  27  93 W17       30.12S WCI  16
FORT BRIDGER   PTSUNNY   33  33 100 W18       30.16R WCI  21
ROCK SPRINGS   MOCLDY    15  13  91 W8        30.13R WCI   4
DIXON          CLOUDY    30  18  60 SW13      30.19R WCI  20
RAWLINS        MOCLDY    29  20  69 W29G36    30.05R WCI  14
SARATOGA       CLOUDY    30  21  69 SW21G30   30.07S WCI  17
LARAMIE        FAIR      29  21  72 W17G25    30.03S WCI  17
CHEYENNE       FAIR      34  22  61 NW7G17    29.99F WCI  28
TORRINGTON     FAIR      10   5  80 NE10      30.09R WCI  -4
PINE BLUFFS    FAIR       9   5  85 SW8       30.05F WCI  -4

$$




USA.gov is the U.S. government's official web portal to all federal, state and local government web resources and services.